Time,TemperatureF,DewpointF,PressureIn,WindDirection,WindDirectionDegrees,WindSpeedMPH,WindSpeedGustMPH,Humidity,HourlyPrecipIn,Conditions,Clouds,dailyrainin,SoftwareType,DateUTC
2013-09-26 00:00:00,57.5,48.9,29.94,North,32767,-999.0,0.0,73,0.00,,,0.00,Wunderground v.1.15,2013-09-26 04:00:00,
2013-09-26 00:05:00,57.4,48.8,29.94,North,32767,-999.0,0.0,73,0.00,,,0.00,Wunderground v.1.15,2013-09-26 04:05:00,
2013-09-26 00:15:00,57.2,49.3,29.94,North,32767,-999.0,0.0,75,0.00,,,0.00,Wunderground v.1.15,2013-09-26 04:15:00,
2013-09-26 02:35:00,55.7,50.3,29.94,North,32767,-999.0,0.0,82,0.00,,,0.00,Wunderground v.1.15,2013-09-26 06:35:00,
2013-09-26 02:40:00,55.0,49.9,29.94,North,32767,-999.0,0.0,83,0.00,,,0.00,Wunderground v.1.15,2013-09-26 06:40:00,
2013-09-26 02:49:00,54.0,49.3,29.94,North,32767,-999.0,0.0,84,0.00,,,0.00,Wunderground v.1.15,2013-09-26 06:49:00,
2013-09-26 02:55:00,53.5,49.1,29.94,North,32767,-999.0,0.0,85,0.00,,,0.00,Wunderground v.1.15,2013-09-26 06:55:00,
2013-09-26 03:00:00,53.2,48.8,29.94,North,32767,-999.0,0.0,85,0.00,,,0.00,Wunderground v.1.15,2013-09-26 07:00:00,
2013-09-26 03:10:00,52.9,48.8,29.94,North,32767,-999.0,0.0,86,0.00,,,0.00,Wunderground v.1.15,2013-09-26 07:10:00,
2013-09-26 03:20:00,52.5,48.7,29.95,North,32767,-999.0,0.0,87,0.00,,,0.00,Wunderground v.1.15,2013-09-26 07:20:00,
2013-09-26 03:30:00,52.5,48.7,29.94,North,32767,-999.0,0.0,87,0.00,,,0.00,Wunderground v.1.15,2013-09-26 07:30:00,
2013-09-26 03:39:00,52.8,49.0,29.94,North,32767,-999.0,0.0,87,0.00,,,0.00,Wunderground v.1.15,2013-09-26 07:39:00,
2013-09-26 03:45:00,53.1,49.0,29.94,North,32767,-999.0,0.0,86,0.00,,,0.00,Wunderground v.1.15,2013-09-26 07:45:00,
2013-09-26 03:55:00,53.2,49.1,29.95,North,32767,-999.0,0.0,86,0.00,,,0.00,Wunderground v.1.15,2013-09-26 07:55:00,
2013-09-26 04:00:00,53.3,49.2,29.95,North,32767,-999.0,0.0,86,0.00,,,0.00,Wunderground v.1.15,2013-09-26 08:00:00,
2013-09-26 04:05:00,53.2,49.1,29.95,North,32767,-999.0,0.0,86,0.00,,,0.00,Wunderground v.1.15,2013-09-26 08:05:00,
2013-09-26 04:15:00,53.0,49.2,29.95,North,32767,-999.0,0.0,87,0.00,,,0.00,Wunderground v.1.15,2013-09-26 08:15:00,
2013-09-26 04:25:00,52.9,49.4,29.95,North,32767,-999.0,0.0,88,0.00,,,0.00,Wunderground v.1.15,2013-09-26 08:25:00,
2013-09-26 04:35:00,52.8,49.6,29.95,North,32767,-999.0,0.0,89,0.00,,,0.00,Wunderground v.1.15,2013-09-26 08:35:00,
2013-09-26 04:40:00,52.6,49.4,29.95,North,32767,-999.0,0.0,89,0.00,,,0.00,Wunderground v.1.15,2013-09-26 08:40:00,
2013-09-26 04:45:00,52.4,49.6,29.95,North,32767,-999.0,0.0,90,0.00,,,0.00,Wunderground v.1.15,2013-09-26 08:45:00,
2013-09-26 04:55:00,52.4,49.8,29.96,North,32767,-999.0,0.0,91,0.00,,,0.00,Wunderground v.1.15,2013-09-26 08:55:00,
2013-09-26 05:00:00,52.3,49.5,29.96,North,32767,-999.0,0.0,90,0.00,,,0.00,Wunderground v.1.15,2013-09-26 09:00:00,
2013-09-26 05:10:00,51.9,49.4,29.96,North,32767,-999.0,0.0,91,0.00,,,0.00,Wunderground v.1.15,2013-09-26 09:10:00,
2013-09-26 05:20:00,51.6,49.4,29.96,North,32767,-999.0,0.0,92,0.00,,,0.00,Wunderground v.1.15,2013-09-26 09:20:00,
2013-09-26 05:25:00,51.4,49.2,29.96,North,32767,-999.0,0.0,92,0.00,,,0.00,Wunderground v.1.15,2013-09-26 09:25:00,
2013-09-26 05:30:00,51.3,49.1,29.96,North,32767,-999.0,0.0,92,0.00,,,0.00,Wunderground v.1.15,2013-09-26 09:30:00,
2013-09-26 05:40:00,51.1,49.1,29.96,North,32767,-999.0,0.0,93,0.00,,,0.00,Wunderground v.1.15,2013-09-26 09:40:00,
2013-09-26 05:45:00,51.0,49.0,29.97,North,32767,-999.0,0.0,93,0.00,,,0.00,Wunderground v.1.15,2013-09-26 09:45:00,
2013-09-26 05:54:00,51.0,49.3,29.97,North,32767,-999.0,0.0,94,0.00,,,0.00,Wunderground v.1.15,2013-09-26 09:54:00,
2013-09-26 06:00:00,50.9,49.2,29.97,North,32767,-999.0,0.0,94,0.00,,,0.00,Wunderground v.1.15,2013-09-26 10:00:00,
2013-09-26 06:10:00,50.7,49.0,29.97,North,32767,-999.0,0.0,94,0.00,,,0.00,Wunderground v.1.15,2013-09-26 10:10:00,
2013-09-26 06:20:00,50.6,48.9,29.97,North,32767,-999.0,0.0,94,0.00,,,0.00,Wunderground v.1.15,2013-09-26 10:20:00,
2013-09-26 06:30:00,50.4,48.7,29.98,North,32767,-999.0,0.0,94,0.00,,,0.00,Wunderground v.1.15,2013-09-26 10:30:00,
2013-09-26 06:40:00,50.3,48.9,29.97,North,32767,-999.0,0.0,95,0.00,,,0.00,Wunderground v.1.15,2013-09-26 10:40:00,
2013-09-26 06:45:00,50.2,48.8,29.98,North,32767,-999.0,0.0,95,0.00,,,0.00,Wunderground v.1.15,2013-09-26 10:45:00,
2013-09-26 06:54:00,50.1,48.7,29.98,North,32767,-999.0,0.0,95,0.00,,,0.00,Wunderground v.1.15,2013-09-26 10:54:00,
2013-09-26 07:00:00,50.0,48.6,29.98,North,32767,-999.0,0.0,95,0.00,,,0.00,Wunderground v.1.15,2013-09-26 11:00:00,
2013-09-26 07:10:00,49.9,48.5,29.98,North,32767,-999.0,0.0,95,0.00,,,0.00,Wunderground v.1.15,2013-09-26 11:10:00,
2013-09-26 07:20:00,49.9,48.8,29.99,North,32767,-999.0,0.0,96,0.00,,,0.00,Wunderground v.1.15,2013-09-26 11:20:00,
2013-09-26 07:30:00,49.9,48.8,29.99,North,32767,-999.0,0.0,96,0.00,,,0.00,Wunderground v.1.15,2013-09-26 11:30:00,
2013-09-26 07:40:00,50.0,48.9,29.99,North,32767,-999.0,0.0,96,0.00,,,0.00,Wunderground v.1.15,2013-09-26 11:40:00,
2013-09-26 07:50:00,49.9,48.8,29.99,North,32767,-999.0,0.0,96,0.00,,,0.00,Wunderground v.1.15,2013-09-26 11:50:00,
2013-09-26 08:00:00,50.1,49.0,30.00,North,32767,-999.0,0.0,96,0.00,,,0.00,Wunderground v.1.15,2013-09-26 12:00:00,
2013-09-26 08:10:00,50.1,49.0,30.00,North,32767,-999.0,0.0,96,0.00,,,0.00,Wunderground v.1.15,2013-09-26 12:10:00,
2013-09-26 08:20:00,50.4,49.3,30.00,North,32767,-999.0,0.0,96,0.00,,,0.00,Wunderground v.1.15,2013-09-26 12:20:00,
2013-09-26 08:30:00,50.7,49.6,30.00,North,32767,-999.0,0.0,96,0.00,,,0.00,Wunderground v.1.15,2013-09-26 12:30:00,
2013-09-26 08:40:00,51.1,50.0,30.00,North,32767,-999.0,0.0,96,0.00,,,0.00,Wunderground v.1.15,2013-09-26 12:40:00,
2013-09-26 08:45:00,51.3,50.2,30.00,North,32767,-999.0,0.0,96,0.00,,,0.00,Wunderground v.1.15,2013-09-26 12:45:00,
2013-09-26 08:55:00,51.6,50.5,30.01,NNW,331,0.0,0.0,96,0.00,,,0.00,Wunderground v.1.15,2013-09-26 12:55:00,
2013-09-26 09:00:00,51.9,50.8,30.01,NNW,338,0.0,0.0,96,0.00,,,0.00,Wunderground v.1.15,2013-09-26 13:00:00,
2013-09-26 09:10:00,52.2,51.1,30.01,NE,55,0.0,0.0,96,0.00,,,0.00,Wunderground v.1.15,2013-09-26 13:10:00,
2013-09-26 09:20:00,52.7,51.6,30.01,NE,55,0.0,0.0,96,0.00,,,0.00,Wunderground v.1.15,2013-09-26 13:20:00,
2013-09-26 09:25:00,53.0,51.9,30.02,NE,55,0.0,0.0,96,0.00,,,0.00,Wunderground v.1.15,2013-09-26 13:25:00,
2013-09-26 09:35:00,53.4,52.3,30.02,North,10,0.0,0.0,96,0.00,,,0.00,Wunderground v.1.15,2013-09-26 13:35:00,
2013-09-26 09:45:00,53.7,52.3,30.02,North,10,0.0,0.0,95,0.00,,,0.00,Wunderground v.1.15,2013-09-26 13:45:00,
2013-09-26 09:55:00,54.1,52.7,30.02,North,10,0.0,0.0,95,0.00,,,0.00,Wunderground v.1.15,2013-09-26 13:55:00,
2013-09-26 10:00:00,54.3,52.9,30.03,North,10,0.0,0.0,95,0.00,,,0.00,Wunderground v.1.15,2013-09-26 14:00:00,
2013-09-26 10:10:00,54.5,53.1,30.02,North,10,0.0,0.0,95,0.00,,,0.00,Wunderground v.1.15,2013-09-26 14:10:00,
2013-09-26 10:15:00,54.9,53.5,30.03,North,10,0.0,0.0,95,0.00,,,0.00,Wunderground v.1.15,2013-09-26 14:15:00,
2013-09-26 10:25:00,55.5,53.8,30.03,NE,48,0.0,0.0,94,0.00,,,0.00,Wunderground v.1.15,2013-09-26 14:25:00,
2013-09-26 10:35:00,56.2,54.5,30.03,NE,48,0.0,0.0,94,0.00,,,0.00,Wunderground v.1.15,2013-09-26 14:35:00,
2013-09-26 10:40:00,56.6,54.6,30.03,NE,48,0.0,0.0,93,0.00,,,0.00,Wunderground v.1.15,2013-09-26 14:40:00,
2013-09-26 10:50:00,56.9,54.6,30.03,NE,34,0.0,0.0,92,0.00,,,0.00,Wunderground v.1.15,2013-09-26 14:50:00,
2013-09-26 11:00:00,57.3,55.0,30.03,NE,38,0.0,0.0,92,0.00,,,0.00,Wunderground v.1.15,2013-09-26 15:00:00,
2013-09-26 11:10:00,58.2,55.6,30.03,North,11,0.0,0.0,91,0.00,,,0.00,Wunderground v.1.15,2013-09-26 15:10:00,
2013-09-26 11:20:00,59.4,56.2,30.03,East,94,0.0,0.0,89,0.00,,,0.00,Wunderground v.1.15,2013-09-26 15:20:00,
2013-09-26 11:30:00,60.4,56.8,30.03,NNE,29,0.0,0.0,88,0.00,,,0.00,Wunderground v.1.15,2013-09-26 15:30:00,
2013-09-26 11:40:00,61.2,57.0,30.03,ESE,108,0.0,0.0,86,0.00,,,0.00,Wunderground v.1.15,2013-09-26 15:40:00,
2013-09-26 11:45:00,61.4,57.2,30.03,NE,52,0.0,0.0,86,0.00,,,0.00,Wunderground v.1.15,2013-09-26 15:45:00,
2013-09-26 11:55:00,61.8,57.2,30.03,NE,34,0.0,0.0,85,0.00,,,0.00,Wunderground v.1.15,2013-09-26 15:55:00,
2013-09-26 12:04:00,62.5,57.3,30.03,SSW,198,0.0,0.0,83,0.00,,,0.00,Wunderground v.1.15,2013-09-26 16:04:00,
2013-09-26 12:09:00,62.6,57.4,30.03,East,97,0.0,0.0,83,0.00,,,0.00,Wunderground v.1.15,2013-09-26 16:09:00,
2013-09-26 12:15:00,62.6,57.4,30.03,ENE,58,0.0,0.0,83,0.00,,,0.00,Wunderground v.1.15,2013-09-26 16:15:00,
2013-09-26 12:25:00,63.0,57.4,30.02,NE,43,0.0,0.0,82,0.00,,,0.00,Wunderground v.1.15,2013-09-26 16:25:00,
2013-09-26 12:35:00,64.5,58.5,30.02,NE,35,0.0,0.0,81,0.00,,,0.00,Wunderground v.1.15,2013-09-26 16:35:00,
2013-09-26 12:40:00,64.2,57.9,30.02,ENE,74,0.0,0.0,80,0.00,,,0.00,Wunderground v.1.15,2013-09-26 16:40:00,
2013-09-26 12:49:00,64.5,58.2,30.02,NNE,26,0.0,0.0,80,0.00,,,0.00,Wunderground v.1.15,2013-09-26 16:49:00,
2013-09-26 12:55:00,64.2,57.5,30.02,ENE,74,0.0,0.0,79,0.00,,,0.00,Wunderground v.1.15,2013-09-26 16:55:00,
2013-09-26 13:00:00,63.8,57.9,30.02,NE,38,0.0,0.0,81,0.00,,,0.00,Wunderground v.1.15,2013-09-26 17:00:00,
2013-09-26 13:10:00,64.7,58.4,30.02,NE,38,0.0,0.0,80,0.00,,,0.00,Wunderground v.1.15,2013-09-26 17:10:00,
2013-09-26 13:15:00,64.9,57.9,30.02,North,360,0.0,0.0,78,0.00,,,0.00,Wunderground v.1.15,2013-09-26 17:15:00,
2013-09-26 13:25:00,65.0,58.0,30.01,East,90,0.0,0.0,78,0.00,,,0.00,Wunderground v.1.15,2013-09-26 17:25:00,
2013-09-26 13:30:00,65.5,58.1,30.01,NE,55,0.0,0.0,77,0.00,,,0.00,Wunderground v.1.15,2013-09-26 17:30:00,
2013-09-26 13:40:00,65.7,58.3,30.01,NNW,346,0.0,0.0,77,0.00,,,0.00,Wunderground v.1.15,2013-09-26 17:40:00,
2013-09-26 13:50:00,66.4,58.6,30.01,NE,34,0.0,0.0,76,0.00,,,0.00,Wunderground v.1.15,2013-09-26 17:50:00,
2013-09-26 14:00:00,66.4,57.5,30.00,North,5,0.0,0.0,73,0.00,,,0.00,Wunderground v.1.15,2013-09-26 18:00:00,
2013-09-26 14:10:00,67.7,58.3,30.00,NE,51,0.0,0.0,72,0.00,,,0.00,Wunderground v.1.15,2013-09-26 18:10:00,
2013-09-26 14:15:00,67.4,57.3,30.00,SSE,154,0.0,0.0,70,0.00,,,0.00,Wunderground v.1.15,2013-09-26 18:15:00,
2013-09-26 14:20:00,66.4,56.7,30.00,ENE,71,0.0,0.0,71,0.00,,,0.00,Wunderground v.1.15,2013-09-26 18:20:00,
2013-09-26 14:25:00,66.3,57.0,30.00,West,273,0.0,0.0,72,0.00,,,0.00,Wunderground v.1.15,2013-09-26 18:25:00,
2013-09-26 14:30:00,66.6,56.9,30.00,ENE,67,0.0,0.0,71,0.00,,,0.00,Wunderground v.1.15,2013-09-26 18:30:00,
2013-09-26 14:39:00,65.7,56.0,30.00,NE,53,0.0,0.0,71,0.00,,,0.00,Wunderground v.1.15,2013-09-26 18:39:00,
2013-09-26 14:45:00,65.0,55.8,30.00,NE,55,0.0,0.0,72,0.00,,,0.00,Wunderground v.1.15,2013-09-26 18:45:00,
2013-09-26 14:55:00,66.6,57.3,30.00,East,92,0.0,0.0,72,0.00,,,0.00,Wunderground v.1.15,2013-09-26 18:55:00,
2013-09-26 15:00:00,66.4,56.7,30.00,East,98,0.0,0.0,71,0.00,,,0.00,Wunderground v.1.15,2013-09-26 19:00:00,
2013-09-26 15:10:00,65.6,56.7,30.00,NNE,26,0.0,0.0,73,0.00,,,0.00,Wunderground v.1.15,2013-09-26 19:10:00,
2013-09-26 15:15:00,65.7,57.6,30.00,North,360,0.0,0.0,75,0.00,,,0.00,Wunderground v.1.15,2013-09-26 19:15:00,
2013-09-26 15:25:00,67.0,56.9,30.00,NNE,27,0.0,0.0,70,0.00,,,0.00,Wunderground v.1.15,2013-09-26 19:25:00,
2013-09-26 15:35:00,67.5,57.0,30.00,ENE,57,0.0,0.0,69,0.00,,,0.00,Wunderground v.1.15,2013-09-26 19:35:00,
2013-09-26 15:40:00,66.6,55.7,30.00,ENE,71,0.0,0.0,68,0.00,,,0.00,Wunderground v.1.15,2013-09-26 19:40:00,
2013-09-26 15:45:00,65.6,55.5,30.01,NE,49,0.0,0.0,70,0.00,,,0.00,Wunderground v.1.15,2013-09-26 19:45:00,
2013-09-26 15:50:00,64.6,55.4,30.01,ENE,76,0.0,0.0,72,0.00,,,0.00,Wunderground v.1.15,2013-09-26 19:50:00,
2013-09-26 16:00:00,64.7,56.2,30.01,ENE,76,0.0,0.0,74,0.00,,,0.00,Wunderground v.1.15,2013-09-26 20:00:00,
2013-09-26 16:10:00,66.4,56.3,30.01,NE,42,0.0,0.0,70,0.00,,,0.00,Wunderground v.1.15,2013-09-26 20:10:00,
2013-09-26 16:20:00,66.1,56.0,30.01,NNE,30,0.0,0.0,70,0.00,,,0.00,Wunderground v.1.15,2013-09-26 20:20:00,
2013-09-26 16:30:00,66.1,55.6,30.01,NNE,14,0.0,0.0,69,0.00,,,0.00,Wunderground v.1.15,2013-09-26 20:30:00,
2013-09-26 16:40:00,66.4,55.9,30.01,NNE,30,0.0,0.0,69,0.00,,,0.00,Wunderground v.1.15,2013-09-26 20:40:00,
2013-09-26 16:45:00,66.8,55.1,30.01,NW,321,0.0,0.0,66,0.00,,,0.00,Wunderground v.1.15,2013-09-26 20:45:00,
2013-09-26 16:55:00,67.4,55.6,30.01,North,5,0.0,0.0,66,0.00,,,0.00,Wunderground v.1.15,2013-09-26 20:55:00,
2013-09-26 17:00:00,67.2,55.9,30.01,North,5,0.0,0.0,67,0.00,,,0.00,Wunderground v.1.15,2013-09-26 21:00:00,
2013-09-26 17:10:00,66.3,54.6,30.01,North,5,0.0,0.0,66,0.00,,,0.00,Wunderground v.1.15,2013-09-26 21:10:00,
2013-09-26 17:15:00,66.0,54.7,30.01,North,5,0.0,0.0,67,0.00,,,0.00,Wunderground v.1.15,2013-09-26 21:15:00,
2013-09-26 17:25:00,65.7,53.6,30.01,North,5,0.0,0.0,65,0.00,,,0.00,Wunderground v.1.15,2013-09-26 21:25:00,
2013-09-26 17:30:00,65.7,54.0,30.01,North,5,0.0,0.0,66,0.00,,,0.00,Wunderground v.1.15,2013-09-26 21:30:00,
2013-09-26 17:40:00,65.5,54.2,30.02,North,5,0.0,0.0,67,0.00,,,0.00,Wunderground v.1.15,2013-09-26 21:40:00,
2013-09-26 17:45:00,65.4,55.0,30.02,North,5,0.0,0.0,69,0.00,,,0.00,Wunderground v.1.15,2013-09-26 21:45:00,
2013-09-26 17:55:00,65.2,54.8,30.02,North,5,0.0,0.0,69,0.00,,,0.00,Wunderground v.1.15,2013-09-26 21:55:00,
2013-09-26 18:00:00,65.1,55.1,30.02,North,5,0.0,0.0,70,0.00,,,0.00,Wunderground v.1.15,2013-09-26 22:00:00,
2013-09-26 18:10:00,64.7,54.7,30.02,North,5,0.0,0.0,70,0.00,,,0.00,Wunderground v.1.15,2013-09-26 22:10:00,
2013-09-26 18:20:00,64.2,54.6,30.03,North,5,0.0,0.0,71,0.00,,,0.00,Wunderground v.1.15,2013-09-26 22:20:00,
2013-09-26 18:25:00,64.0,54.8,30.02,North,32767,-999.0,0.0,72,0.00,,,0.00,Wunderground v.1.15,2013-09-26 22:25:00,
2013-09-26 18:35:00,63.2,53.3,30.03,North,32767,-999.0,0.0,70,0.00,,,0.00,Wunderground v.1.15,2013-09-26 22:35:00,
2013-09-26 18:40:00,63.0,53.1,30.02,North,32767,-999.0,0.0,70,0.00,,,0.00,Wunderground v.1.15,2013-09-26 22:40:00,
2013-09-26 18:50:00,62.6,53.1,30.03,North,32767,-999.0,0.0,71,0.00,,,0.00,Wunderground v.1.15,2013-09-26 22:50:00,
2013-09-26 19:05:00,62.0,54.7,30.03,North,32767,-999.0,0.0,77,0.00,,,0.00,Wunderground v.1.15,2013-09-26 23:05:00,
2013-09-26 19:10:00,61.9,55.0,30.03,North,32767,-999.0,0.0,78,0.00,,,0.00,Wunderground v.1.15,2013-09-26 23:10:00,
2013-09-26 19:15:00,61.8,55.2,30.04,North,32767,-999.0,0.0,79,0.00,,,0.00,Wunderground v.1.15,2013-09-26 23:15:00,
2013-09-26 19:25:00,61.4,55.2,30.04,North,32767,-999.0,0.0,80,0.00,,,0.00,Wunderground v.1.15,2013-09-26 23:25:00,
2013-09-26 19:30:00,61.2,55.3,30.04,North,32767,-999.0,0.0,81,0.00,,,0.00,Wunderground v.1.15,2013-09-26 23:30:00,
2013-09-26 19:35:00,60.9,55.4,30.04,North,32767,-999.0,0.0,82,0.00,,,0.00,Wunderground v.1.15,2013-09-26 23:35:00,
2013-09-26 19:45:00,60.5,56.0,30.04,North,32767,-999.0,0.0,85,0.00,,,0.00,Wunderground v.1.15,2013-09-26 23:45:00,
2013-09-26 19:50:00,60.3,56.1,30.05,North,32767,-999.0,0.0,86,0.00,,,0.00,Wunderground v.1.15,2013-09-26 23:50:00,
2013-09-26 19:55:00,60.1,56.2,30.05,North,32767,-999.0,0.0,87,0.00,,,0.00,Wunderground v.1.15,2013-09-26 23:55:00,
2013-09-26 20:00:00,60.1,56.2,30.05,North,32767,-999.0,0.0,87,0.00,,,0.00,Wunderground v.1.15,2013-09-27 00:00:00,
2013-09-26 20:10:00,60.0,56.4,30.05,North,32767,-999.0,0.0,88,0.00,,,0.00,Wunderground v.1.15,2013-09-27 00:10:00,
2013-09-26 20:20:00,60.0,56.4,30.05,North,32767,-999.0,0.0,88,0.00,,,0.00,Wunderground v.1.15,2013-09-27 00:20:00,
2013-09-26 20:25:00,59.9,56.3,30.05,North,32767,-999.0,0.0,88,0.00,,,0.00,Wunderground v.1.15,2013-09-27 00:25:00,
2013-09-26 20:30:00,59.8,56.6,30.06,North,32767,-999.0,0.0,89,0.00,,,0.00,Wunderground v.1.15,2013-09-27 00:30:00,
2013-09-26 20:40:00,59.6,56.4,30.06,North,32767,-999.0,0.0,89,0.00,,,0.00,Wunderground v.1.15,2013-09-27 00:40:00,
2013-09-26 20:45:00,59.6,56.7,30.07,North,32767,-999.0,0.0,90,0.00,,,0.00,Wunderground v.1.15,2013-09-27 00:45:00,
2013-09-26 20:55:00,59.4,56.5,30.07,North,32767,-999.0,0.0,90,0.00,,,0.00,Wunderground v.1.15,2013-09-27 00:55:00,
2013-09-26 21:00:00,59.1,56.2,30.07,North,32767,-999.0,0.0,90,0.00,,,0.00,Wunderground v.1.15,2013-09-27 01:00:00,
2013-09-26 21:10:00,58.6,56.0,30.08,North,32767,-999.0,0.0,91,0.00,,,0.00,Wunderground v.1.15,2013-09-27 01:10:00,
2013-09-26 21:15:00,58.4,55.8,30.08,North,32767,-999.0,0.0,91,0.00,,,0.00,Wunderground v.1.15,2013-09-27 01:15:00,
2013-09-26 21:25:00,58.2,55.9,30.08,North,32767,-999.0,0.0,92,0.00,,,0.00,Wunderground v.1.15,2013-09-27 01:25:00,
2013-09-26 21:30:00,58.2,55.9,30.08,North,32767,-999.0,0.0,92,0.00,,,0.00,Wunderground v.1.15,2013-09-27 01:30:00,
2013-09-26 21:40:00,58.0,55.7,30.08,North,32767,-999.0,0.0,92,0.00,,,0.00,Wunderground v.1.15,2013-09-27 01:40:00,
2013-09-26 21:45:00,57.8,55.8,30.08,North,32767,-999.0,0.0,93,0.00,,,0.00,Wunderground v.1.15,2013-09-27 01:45:00,
2013-09-26 21:55:00,57.5,55.2,30.08,North,32767,-999.0,0.0,92,0.00,,,0.00,Wunderground v.1.15,2013-09-27 01:55:00,
2013-09-26 22:00:00,57.2,54.9,30.08,North,32767,-999.0,0.0,92,0.00,,,0.00,Wunderground v.1.15,2013-09-27 02:00:00,
2013-09-26 22:10:00,56.9,54.6,30.09,North,32767,-999.0,0.0,92,0.00,,,0.00,Wunderground v.1.15,2013-09-27 02:10:00,
2013-09-26 22:20:00,56.6,54.0,30.08,North,32767,-999.0,0.0,91,0.00,,,0.00,Wunderground v.1.15,2013-09-27 02:20:00,
2013-09-26 22:30:00,56.4,53.5,30.09,North,32767,-999.0,0.0,90,0.00,,,0.00,Wunderground v.1.15,2013-09-27 02:30:00,
2013-09-26 22:40:00,56.1,53.2,30.09,North,32767,-999.0,0.0,90,0.00,,,0.00,Wunderground v.1.15,2013-09-27 02:40:00,
2013-09-26 22:45:00,55.9,53.0,30.09,North,32767,-999.0,0.0,90,0.00,,,0.00,Wunderground v.1.15,2013-09-27 02:45:00,
2013-09-26 22:55:00,55.7,53.1,30.09,North,32767,-999.0,0.0,91,0.00,,,0.00,Wunderground v.1.15,2013-09-27 02:55:00,
2013-09-26 23:05:00,55.3,52.7,30.09,North,32767,-999.0,0.0,91,0.00,,,0.00,Wunderground v.1.15,2013-09-27 03:05:00,
2013-09-26 23:15:00,54.8,52.2,30.09,North,32767,-999.0,0.0,91,0.00,,,0.00,Wunderground v.1.15,2013-09-27 03:15:00,
2013-09-26 23:25:00,54.4,52.1,30.09,North,32767,-999.0,0.0,92,0.00,,,0.00,Wunderground v.1.15,2013-09-27 03:25:00,
2013-09-26 23:30:00,54.2,51.9,30.09,North,32767,-999.0,0.0,92,0.00,,,0.00,Wunderground v.1.15,2013-09-27 03:30:00,
2013-09-26 23:35:00,54.1,51.8,30.09,North,32767,-999.0,0.0,92,0.00,,,0.00,Wunderground v.1.15,2013-09-27 03:35:00,
2013-09-26 23:40:00,53.9,51.6,30.09,North,32767,-999.0,0.0,92,0.00,,,0.00,Wunderground v.1.15,2013-09-27 03:40:00,
2013-09-26 23:45:00,53.7,51.1,30.09,North,32767,-999.0,0.0,91,0.00,,,0.00,Wunderground v.1.15,2013-09-27 03:45:00,
2013-09-26 23:50:00,53.5,50.9,30.10,North,32767,-999.0,0.0,91,0.00,,,0.00,Wunderground v.1.15,2013-09-27 03:50:00,